Regional Weather Roundup
Issued by NWS

Home | Current Version | Previous Version | Graphics & Text | Print | Product List | Glossary On
Versions: 1 2 3 4 5 6 7 8 9 10 11 12 13 14 15 16 17 18 19 20 21 22 23 24 25 26 27 28 29 30 31 32 33 34 35 36 37 38 39 40 41 42 43 44 45 46 47 48 49 50
073
ASUS45 KTFX 220910
RWRMT
MONTANA REGIONAL WEATHER ROUNDUP
NATIONAL WEATHER SERVICE GREAT FALLS MT
200 AM MST MON JAN 22 2018

NOTE: "FAIR" INDICATES FEW OR NO CLOUDS BELOW 12000 FEET WITH NO
SIGNIFICANT WEATHER AND/OR OBSTRUCTIONS TO VISIBILITY.

MTZ001>007-043-221000-
WEST OF THE DIVIDE

CITY           SKY/WX    TMP DP  RH WIND       PRES   REMARKS
KALISPELL      MOCLDY    30  25  81 S8        29.98R WCI  22
MISSOULA       CLOUDY    34  24  67 SE12      30.04S WCI  25
BUTTE          CLOUDY    11   5  77 N3        30.03S
MULLAN PASS    LGT SNOW  25  23  92 SW12G22   29.93S FOG     WCI  14
ANACONDA         N/A     28  18  64 S10G35    30.02R WCI  19
DEER LODGE       N/A     28  19  69 S9        30.01F WCI  20
EUREKA           N/A     37  25  60 MISG      29.95R
HAMILTON         N/A     34  23  64 SE10      30.06  WCI  26
RONAN            N/A     36  27  69 S10       30.03R WCI  28
$$

MTZ008-052>055-221000-
SOUTHWEST MONTANA

CITY           SKY/WX    TMP DP  RH WIND       PRES   REMARKS
BOZEMAN        FAIR       8   4  83 S5        30.08S
DILLON         CLOUDY    21  12  68 SE7       30.08S WCI  12
ENNIS          CLOUDY    23  14  68 S17G23    30.13S WCI   9
W YELLOWSTONE  CLOUDY    14  12  92 CALM      30.14S
THREE FORKS      N/A     29  16  58 S17       30.05F WCI  17
$$

MTZ009-010-012-014-046-048-049-054-221000-
EAST SLOPES AND CENTRAL MONTANA

CITY           SKY/WX    TMP DP  RH WIND       PRES   REMARKS
CUT BANK       FAIR      33  22  63 SW26      29.83S WCI  20
GREAT FALLS    FAIR      32  14  47 SW13      29.92R WCI  22
MALMSTROM AFB  MOCLDY    33  15  47 SW22      29.92S WCI  21
HELENA         MOCLDY    19  13  77 W6        30.03S WCI  11
AUGUSTA        FAIR      30  21  67 S17       29.88S WCI  19
BOWMANS CRNR   FAIR      26  15  64 S18       29.90R WCI  12
CHOTEAU          N/A     36  19  51 SW16      29.89R WCI  26
CONRAD           N/A     30  23  75 S9        29.90  WCI  22
FAIRFIELD      MOCLDY    31  17  54 SW23G29   29.87S WCI  18
POWER          MOCLDY    30  17  60 SW20      29.89R WCI  17
RAYNESFORD     MOCLDY    37  11  35 SW24G33   29.91S WCI  25
ULM            MOCLDY    34  17  49 S13       29.94S WCI  25
WHITE SULPHUR    N/A     23  10  58 S14       30.00S WCI  11
$$

MTZ011-013-016-021-045-047-050-051-221000-
NORTH CENTRAL MONTANA

CITY           SKY/WX    TMP DP  RH WIND       PRES   REMARKS
HAVRE          FAIR      25  15  66 VRB5      29.88S
LEWISTOWN      FAIR      19  10  68 S7        29.92R WCI  10
N BAR RANCH    FAIR      16   7  67 W7        29.94S WCI   6
CHINOOK          N/A     10   9  92 CALM      29.91S
DENTON         MOCLDY    20  13  72 MISG      29.89R
GEYSER         FAIR      29  12  49 NW6       29.90S WCI  23
GRASS RANGE    MOCLDY    24  12  59 SW13      29.89S WCI  13
STANFORD       FAIR      27  10  49 S10       29.90S WCI  17
WINIFRED       MOCLDY    32  14  48 SW14      29.89F WCI  22
$$

MTZ017>020-022>027-061-062-221000-
NORTHEAST MONTANA

CITY           SKY/WX    TMP DP  RH WIND       PRES   REMARKS
GLASGOW        FAIR      13   9  84 SE12      29.95F WCI  -1
GLENDIVE       FAIR      10   7  87 S3        30.00S
JORDAN           N/A      2  -2  83 W3        29.96F
MALTA          CLEAR      3   0  85 CALM      29.95S
SIDNEY         FAIR      11   8  88 SW9       30.01F WCI  -2
WOLF POINT     CLOUDY     3  -2  79 CALM      30.00F HAZE
PLENTYWOOD       N/A     16  12  86 CALM      29.97S
POPLAR           N/A     12  10  92 CALM      30.00F VSB 1/2
$$

MTZ028>42-056>058-221000-
SOUTHCENTRAL AND SOUTHEAST MONTANA

CITY           SKY/WX    TMP DP  RH WIND       PRES   REMARKS
BAKER          FAIR       5   2  87 CALM      29.99S
BILLINGS       FAIR      23  17  78 SW10      29.99S WCI  12
LIVINGSTON     MIX PCPN  27  16  63 SW25G48   30.01S WCI  12
MILES CITY     FAIR       4   3  96 S6        30.00S WCI  -7
BIG TIMBER     CLEAR     27  14  59 W26G36    30.00F WCI  11
FORSYTH          N/A     12  12 100 CALM      30.00S
HARLOWTON      MOCLDY    25  10  54 SE3       29.95R
LAUREL           N/A     25  18  74 SW16      30.01S WCI  12
$$

REGIONAL REPORTS...DAKOTAS

CITY           SKY/WX    TMP DP  RH WIND       PRES   REMARKS
WILLISTON      FAIR       5   2  87 CALM      30.00F
MINOT          FAIR      12   8  84 CALM      30.00S FOG
DICKINSON      FAIR      16  12  84 W12       29.95S WCI   3
BEACH          FAIR      21  16  79 W6        30.01S WCI  14
CROSBY         FAIR       9   7  92 S9        29.99S WCI  -5
TIOGA          FAIR       7   7 100 CALM      30.00R
BISMARCK       FOG       18  17  96 CALM      30.02F VSB 1/4
GRAND FORKS    CLOUDY    23  21  92 N7        30.09S WCI  15
FARGO          CLOUDY    25  23  92 NE15      30.04R WCI  13
BUFFALO SD       N/A     20  13  74 W5        29.92S
RAPID CITY     FAIR      28  18  66 NW18      29.95S WCI  15
$$

REGIONAL REPORTS...WYOMING/IDAHO/WASHINGTON

CITY           SKY/WX    TMP DP  RH WIND       PRES   REMARKS
GILLETTE       FAIR      19  11  70 SW13      29.98R WCI   6
SHERIDAN       FAIR      12   8  84 CALM      29.98S
BUFFALO WY     FAIR      21   3  45 W9        29.96F WCI  11
CODY           FAIR      26   6  42 NW8G17    30.00S WCI  18
YELLOWSTONE LA   N/A      2   0  91 CALM      30.15S
IDAHO FALLS    FAIR      21  19  92 N3        30.22S
SALMON         CLOUDY    23  17  78 CALM      30.17F
BOISE          CLOUDY    36  31  82 SE16      30.16F WCI  26
SPOKANE        MOCLDY    35  34  96 SW15      30.02R WCI  25
$$

REGIONAL REPORTS...ALBERTA

CITY           SKY/WX    TMP DP  RH WIND       PRES   REMARKS
CALGARY        MOCLDY    34  14  44 SW8       29.69R WCI  27
CARDSTON         N/A     34  19  55 W6G17       N/A  WCI  29
EDMONTON       CLOUDY    19  16  86 E13       29.65F WCI   7
FORT MCMURRAY  CLOUDY    12   9  85 E6        29.85F WCI   3
HIGH LEVEL     LGT SNOW   5   1  85 SE8       29.79S WCI  -8
LETHBRIDGE     CLEAR     30  19  64 W5        29.80S
LLOYDMINSTER   CLOUDY    21  19  93 SE18G28   29.72  FOG     WCI   6
MEDICINE HAT   CLOUDY    34  21  60 SW22G29   29.78R WCI  22
PEACE RIVER    PTCLDY    16  14  93 N3        29.64S
PINCHER CREEK  PTCLDY    32  23  69 W21G26    29.79R WCI  20
WATERTON GATE    N/A     32  21  64 SW35G54     N/A  WCI  17
$$

REGIONAL REPORTS...SASKATCHEWAN

CITY           SKY/WX    TMP DP  RH WIND       PRES   REMARKS
CORONACH         N/A      5   1  85 SE5         N/A
CYPRESS HILLS    N/A     16  12  86 S7          N/A  WCI   6
ESTEVAN        CLEAR      1  -2  85 E6        29.99R FOG     WCI -10
MOOSE JAW        N/A     10   9  92 SE5         N/A
PRINCE ALBERT  FLURRIES   9   7  92 E10       30.03F WCI  -6
REGINA         MOCLDY    10   9  92 E10       29.95S WCI  -3
ROCKGLEN         N/A     18  12  79 SW13        N/A  WCI   4
SASKATOON      CLOUDY    21  19  93 E17       29.92S FOG     WCI   7
SWIFT CURRENT  MOCLDY    25  16  68 S17G23    29.82F WCI  11
VAL MARIE        N/A      0  -4  85 CALM        N/A
$$




USA.gov is the U.S. government's official web portal to all federal, state and local government web resources and services.